TimeEST,TemperatureF,Dew PointF,Humidity,Sea Level PressureIn,VisibilityMPH,Wind Direction,Wind SpeedMPH,Gust SpeedMPH,PrecipitationIn,Events,Conditions,WindDirDegrees,DateUTC
12:16 AM,26.6,26.6,100,30.14,5.0,Calm,Calm,-,N/A,,Clear,0,2012-11-09 05:16:00
12:36 AM,26.6,26.6,100,30.14,4.0,Calm,Calm,-,N/A,,Clear,0,2012-11-09 05:36:00
12:56 AM,26.6,26.6,100,30.14,5.0,Calm,Calm,-,N/A,,Clear,0,2012-11-09 05:56:00
1:16 AM,26.6,24.8,93,30.14,5.0,Calm,Calm,-,N/A,,Clear,0,2012-11-09 06:16:00
1:36 AM,26.6,26.6,100,30.14,7.0,Calm,Calm,-,N/A,,Clear,0,2012-11-09 06:36:00
1:56 AM,26.6,24.8,93,30.15,4.0,Calm,Calm,-,N/A,,Clear,0,2012-11-09 06:56:00
2:16 AM,26.6,24.8,93,30.16,7.0,Calm,Calm,-,N/A,,Clear,0,2012-11-09 07:16:00
2:36 AM,26.6,24.8,93,30.16,7.0,Calm,Calm,-,N/A,,Clear,0,2012-11-09 07:36:00
2:56 AM,26.6,24.8,93,30.16,5.0,Calm,Calm,-,N/A,,Clear,0,2012-11-09 07:56:00
3:16 AM,24.8,24.8,100,30.16,5.0,Calm,Calm,-,N/A,,Clear,0,2012-11-09 08:16:00
3:36 AM,24.8,24.8,100,30.16,4.0,Calm,Calm,-,N/A,,Clear,0,2012-11-09 08:36:00
3:56 AM,24.8,24.8,100,30.15,5.0,Calm,Calm,-,N/A,,Clear,0,2012-11-09 08:56:00
4:16 AM,24.8,24.8,100,30.15,7.0,Calm,Calm,-,N/A,,Clear,0,2012-11-09 09:16:00
4:36 AM,26.6,24.8,93,30.15,5.0,Calm,Calm,-,N/A,,Clear,0,2012-11-09 09:36:00
4:56 AM,26.6,26.6,100,30.15,4.0,Calm,Calm,-,N/A,,Scattered Clouds,0,2012-11-09 09:56:00
5:16 AM,26.6,26.6,100,30.16,4.0,Calm,Calm,-,N/A,,Overcast,0,2012-11-09 10:16:00
5:36 AM,28.4,26.6,93,30.16,5.0,Calm,Calm,-,N/A,,Overcast,0,2012-11-09 10:36:00
5:56 AM,28.4,26.6,93,30.16,5.0,Calm,Calm,-,N/A,,Mostly Cloudy,0,2012-11-09 10:56:00
6:16 AM,28.4,28.4,100,30.16,4.0,Calm,Calm,-,N/A,,Overcast,0,2012-11-09 11:16:00
6:36 AM,30.2,28.4,93,30.17,4.0,Calm,Calm,-,N/A,,Overcast,0,2012-11-09 11:36:00
6:56 AM,30.2,28.4,93,30.16,4.0,Calm,Calm,-,N/A,,Overcast,0,2012-11-09 11:56:00
7:16 AM,30.2,30.2,100,30.16,2.5,Calm,Calm,-,N/A,,Overcast,0,2012-11-09 12:16:00
7:36 AM,32.0,30.2,93,30.17,2.0,Calm,Calm,-,N/A,,Overcast,0,2012-11-09 12:36:00
7:56 AM,32.0,32.0,100,30.17,2.0,SSW,3.5,-,N/A,,Overcast,200,2012-11-09 12:56:00
8:16 AM,33.8,32.0,93,30.18,2.5,SSW,3.5,-,N/A,,Overcast,200,2012-11-09 13:16:00
8:36 AM,33.8,33.8,100,30.18,2.5,Calm,Calm,-,N/A,,Overcast,0,2012-11-09 13:36:00
8:56 AM,35.6,33.8,93,30.18,3.0,SSW,4.6,-,N/A,,Overcast,210,2012-11-09 13:56:00
9:16 AM,35.6,33.8,93,30.18,3.0,SSW,3.5,-,N/A,,Overcast,210,2012-11-09 14:16:00
9:36 AM,37.4,33.8,87,30.18,4.0,SW,3.5,-,N/A,,Overcast,220,2012-11-09 14:36:00
9:56 AM,37.4,33.8,87,30.18,4.0,SW,3.5,-,N/A,,Overcast,230,2012-11-09 14:56:00
10:16 AM,39.2,35.6,87,30.18,5.0,SSW,3.5,-,N/A,,Overcast,210,2012-11-09 15:16:00
10:36 AM,41.0,35.6,81,30.18,5.0,WSW,3.5,-,N/A,,Haze,240,2012-11-09 15:36:00
10:56 AM,42.8,35.6,76,30.18,7.0,SSW,4.6,-,N/A,,Overcast,210,2012-11-09 15:56:00
11:16 AM,44.6,35.6,71,30.17,5.0,SSW,5.8,-,N/A,,Haze,200,2012-11-09 16:16:00
11:36 AM,44.6,35.6,71,30.17,7.0,SSW,4.6,-,N/A,,Overcast,210,2012-11-09 16:36:00
11:56 AM,44.6,37.4,76,30.16,7.0,South,4.6,-,N/A,,Overcast,190,2012-11-09 16:56:00
12:16 PM,46.4,37.4,71,30.16,5.0,SSW,5.8,-,N/A,,Haze,210,2012-11-09 17:16:00
12:36 PM,46.4,37.4,71,30.16,7.0,SSW,8.1,-,N/A,,Overcast,200,2012-11-09 17:36:00
12:56 PM,46.4,37.4,71,30.15,7.0,SSW,6.9,-,N/A,,Overcast,200,2012-11-09 17:56:00
1:16 PM,46.4,35.6,66,30.15,7.0,SSW,3.5,-,N/A,,Overcast,210,2012-11-09 18:16:00
1:36 PM,46.4,37.4,71,30.15,5.0,South,8.1,-,N/A,,Haze,190,2012-11-09 18:36:00
1:56 PM,46.4,37.4,71,30.14,5.0,South,8.1,-,N/A,,Haze,190,2012-11-09 18:56:00
2:16 PM,46.4,37.4,71,30.13,5.0,South,8.1,-,N/A,,Haze,170,2012-11-09 19:16:00
2:36 PM,46.4,37.4,71,30.12,5.0,South,8.1,-,N/A,,Haze,190,2012-11-09 19:36:00
2:56 PM,46.4,37.4,71,30.12,5.0,SSW,9.2,-,N/A,,Haze,200,2012-11-09 19:56:00
3:16 PM,46.4,35.6,66,30.12,7.0,SSW,8.1,-,N/A,,Overcast,200,2012-11-09 20:16:00
3:36 PM,48.2,35.6,62,30.13,7.0,SSE,3.5,-,N/A,,Mostly Cloudy,160,2012-11-09 20:36:00
3:56 PM,48.2,35.6,62,30.13,7.0,SSW,4.6,-,N/A,,Mostly Cloudy,200,2012-11-09 20:56:00
4:16 PM,46.4,35.6,66,30.13,7.0,SSW,5.8,-,N/A,,Scattered Clouds,200,2012-11-09 21:16:00
4:36 PM,46.4,35.6,66,30.13,7.0,SSE,4.6,-,N/A,,Clear,150,2012-11-09 21:36:00
4:56 PM,44.6,35.6,71,30.13,7.0,Calm,Calm,-,N/A,,Clear,0,2012-11-09 21:56:00
5:16 PM,42.8,35.6,76,30.13,7.0,SE,3.5,-,N/A,,Clear,130,2012-11-09 22:16:00
5:36 PM,41.0,35.6,81,30.14,7.0,Calm,Calm,-,N/A,,Mostly Cloudy,0,2012-11-09 22:36:00
5:56 PM,42.8,37.4,81,30.13,7.0,ESE,4.6,-,N/A,,Overcast,110,2012-11-09 22:56:00
6:16 PM,44.6,37.4,76,30.14,7.0,ESE,4.6,-,N/A,,Overcast,120,2012-11-09 23:16:00
6:36 PM,44.6,37.4,76,30.14,7.0,ESE,5.8,-,N/A,,Overcast,110,2012-11-09 23:36:00
6:56 PM,44.6,37.4,76,30.14,7.0,SE,4.6,-,N/A,,Overcast,130,2012-11-09 23:56:00
7:16 PM,44.6,37.4,76,30.14,7.0,ESE,4.6,-,N/A,,Overcast,120,2012-11-10 00:16:00
7:36 PM,44.6,37.4,76,30.14,7.0,ESE,4.6,-,N/A,,Overcast,110,2012-11-10 00:36:00
7:56 PM,44.6,37.4,76,30.14,7.0,East,4.6,-,N/A,,Overcast,100,2012-11-10 00:56:00
8:16 PM,44.6,37.4,76,30.14,7.0,ESE,4.6,-,N/A,,Overcast,110,2012-11-10 01:16:00
8:36 PM,44.6,37.4,76,30.14,7.0,ESE,3.5,-,N/A,,Overcast,120,2012-11-10 01:36:00
8:56 PM,44.6,37.4,76,30.14,7.0,Calm,Calm,-,N/A,,Overcast,0,2012-11-10 01:56:00
9:16 PM,44.6,39.2,81,30.14,7.0,Calm,Calm,-,N/A,,Overcast,0,2012-11-10 02:16:00
9:36 PM,44.6,39.2,81,30.14,7.0,Calm,Calm,-,N/A,,Overcast,0,2012-11-10 02:36:00
9:56 PM,44.6,39.2,81,30.14,7.0,South,4.6,-,N/A,Rain,Light Rain,190,2012-11-10 02:56:00
10:16 PM,44.6,39.2,81,30.15,7.0,Calm,Calm,-,N/A,,Overcast,0,2012-11-10 03:16:00
10:36 PM,44.6,39.2,81,30.15,7.0,Calm,Calm,-,N/A,,Overcast,0,2012-11-10 03:36:00
10:56 PM,44.6,39.2,81,30.15,5.0,Calm,Calm,-,N/A,,Haze,0,2012-11-10 03:56:00
11:16 PM,44.6,39.2,81,30.15,5.0,Calm,Calm,-,N/A,,Haze,0,2012-11-10 04:16:00
11:36 PM,44.6,39.2,81,30.14,7.0,Calm,Calm,-,N/A,,Overcast,0,2012-11-10 04:36:00
11:56 PM,44.6,39.2,81,30.14,5.0,East,3.5,-,N/A,,Overcast,90,2012-11-10 04:56:00